Content
SEND FEEDBACK

Daily
Averages
Monthly
Summary
United States of America

UMATAC, GUAM


Home > North America > United States > Guam
Elevation: 190 feet     Latitude: 13 17N     Longitude: 144 40E

WEATHER
 
SELECT A DAY
Number of Records: 342,038;   Date Range: 1/1/95 - 7/29/14
 
SHARE

PRINT THIS DATA

[ ← Previous Day ]
WEATHER ALMANAC - JUNE 10, 2014
[ Next Day → ]
[ °C ]   °F
Weather ElementAverageHighLow
Temperature82.8 °F86.9 °F (12:58 pm)79.5 °F (3:58 am)
Dewpoint77 °F78.8 °F (11:28 am)75.2 °F (3:13 am)
Humidity82.7 %90 % (9:58 pm)73 % (12:58 pm)
Barometer29.77 in29.83 in (12:13 am)29.69 in (3:58 pm)
Wind Speed11.3 mph16.1 mph (4:33 pm)
Wind Gust24.2 mph (5:49 pm)
Weather ElementAverage
Visibility9.8 mi
Wind DirectionENE (80.7 °)

Weather ElementTotal
Precipitation0.03 in
Cooling Degree Days18.2 (Base 65)
Growing Degree Days33.2 (Base 50)
Averaged from 87 records on June 10, 2014
WEATHER CONDITIONS BREAKOUT
WIND DIRECTION BREAKOUT
WEATHER BY HOUR - JUNE 10, 2014
[ °C ]   °F
Local TimeTemperatureDewpointHumidityBarometerVisibilityWind DirectionWind SpeedGust SpeedPrecipitationEventsConditions
12:13 AM80.6 °F77.0 °F89 %29.83 in10.0 miEast (80°)9.2 mphMostly Cloudy
12:53 AM80.6 °F77.0 °F89 %29.82 in10.0 miEast (80°)9.2 mphScattered Clouds
12:58 AM80.4 °F76.6 °F88 %29.79 in10.0 miEast (80°)8.1 mphScattered Clouds
1:38 AM80.6 °F77.0 °F89 %29.80 in10.0 miEast (80°)10.4 mphMostly Cloudy
1:58 AM80.4 °F76.6 °F88 %29.76 in10.0 miEast (80°)10.4 mphMostly Cloudy
2:03 AM80.6 °F77.0 °F89 %29.79 in10.0 miEast (80°)8.1 mphMostly Cloudy
2:38 AM80.6 °F77.0 °F89 %29.79 in10.0 miEast (80°)9.2 mphScattered Clouds
2:48 AM80.6 °F77.0 °F89 %29.79 in10.0 miEast (80°)8.1 mphMostly Cloudy
2:58 AM80.4 °F76.3 °F87 %29.75 in10.0 miEast (80°)8.1 mphMostly Cloudy
3:08 AM80.6 °F77.0 °F89 %29.78 in10.0 miEast (80°)8.1 mphMostly Cloudy
3:13 AM80.6 °F75.2 °F84 %29.78 in10.0 miEast (80°)8.1 mphMostly Cloudy
3:18 AM80.6 °F75.2 °F84 %29.78 in10.0 miEast (80°)8.1 mphMostly Cloudy
3:23 AM80.6 °F75.2 °F84 %29.77 in10.0 miEast (80°)8.1 mphMostly Cloudy
3:33 AM80.6 °F75.2 °F84 %29.77 in10.0 miEast (80°)8.1 mphScattered Clouds
3:58 AM79.5 °F75.7 °F88 %29.75 in10.0 miENE (70°)8.1 mphPartly Cloudy
4:58 AM80.1 °F76.3 °F88 %29.75 in10.0 miENE (70°)8.1 mphScattered Clouds
5:38 AM80.6 °F75.2 °F84 %29.79 in10.0 miENE (60°)8.1 mphMostly Cloudy
5:43 AM80.6 °F77.0 °F89 %29.79 in10.0 miENE (60°)6.9 mphMostly Cloudy
5:48 AM80.6 °F77.0 °F89 %29.79 in10.0 miENE (60°)6.9 mphScattered Clouds
5:58 AM79.9 °F76.1 °F88 %29.76 in10.0 miENE (60°)6.9 mphMostly Cloudy
6:43 AM80.6 °F77.0 °F89 %29.81 in10.0 miENE (60°)8.1 mphMostly Cloudy
6:48 AM80.6 °F77.0 °F89 %29.81 in10.0 miENE (60°)9.2 mphScattered Clouds
6:58 AM81.7 °F76.5 °F84 %29.78 in10.0 miENE (70°)9.2 mphScattered Clouds
7:48 AM82.4 °F77.0 °F84 %29.82 in10.0 miEast (80°)10.4 mphMostly Cloudy
7:53 AM82.4 °F77.0 °F84 %29.82 in10.0 miEast (80°)9.2 mphMostly Cloudy
7:58 AM82.4 °F77.5 °F85 %29.79 in10.0 miENE (70°)9.2 mphMostly Cloudy
8:58 AM84.7 °F77.0 °F77 %29.81 in10.0 miEast (80°)9.2 mphScattered Clouds
9:58 AM85.5 °F77.0 °F76 %29.81 in10.0 miENE (70°)10.4 mphScattered Clouds
10:13 AM86.0 °F77.0 °F74 %29.82 in10.0 miEast (80°)11.5 mphMostly Cloudy
10:18 AM86.0 °F77.0 °F74 %29.82 in10.0 miEast (90°)10.4 mphMostly Cloudy
10:23 AM86.0 °F77.0 °F74 %29.82 in10.0 miENE (70°)11.5 mphMostly Cloudy
10:33 AM86.0 °F77.0 °F74 %29.82 in10.0 miENE (70°)11.5 mphMostly Cloudy
10:38 AM86.0 °F77.0 °F74 %29.82 in10.0 miEast (80°)11.5 mphScattered Clouds
10:58 AM86.5 °F77.4 °F74 %29.79 in10.0 miEast (80°)11.5 mphScattered Clouds
11:13 AM86.0 °F77.0 °F74 %29.81 in10.0 miEast (80°)10.4 mphMostly Cloudy
11:28 AM86.0 °F78.8 °F79 %29.81 in10.0 miEast (90°)10.4 mphMostly Cloudy
11:38 AM86.0 °F77.0 °F74 %29.80 in10.0 miEast (90°)11.5 mphScattered Clouds
11:58 AM86.5 °F77.2 °F74 %29.77 in10.0 miENE (70°)12.7 mphPartly Cloudy
12:43 PM86.0 °F77.0 °F74 %29.78 in10.0 miEast (90°)13.8 mphScattered Clouds
12:58 PM86.9 °F77.4 °F73 %29.75 in10.0 miEast (80°)12.7 mphPartly Cloudy
1:48 PM86.0 °F77.0 °F74 %29.76 in10.0 miEast (100°)12.7 mphMostly Cloudy
1:58 PM85.8 °F77.7 °F77 %29.73 in10.0 miEast (90°)11.5 mphMostly Cloudy
2:03 PM86.0 °F78.8 °F79 %29.76 in10.0 miEast (100°)11.5 mphMostly Cloudy
2:13 PM86.0 °F77.0 °F74 %29.76 in10.0 miEast (90°)10.4 mphMostly Cloudy
2:53 PM86.0 °F78.8 °F79 %29.74 in10.0 miENE (70°)13.8 mphMostly Cloudy
2:58 PM86.4 °F77.9 °F76 %29.71 in10.0 miEast (80°)12.7 mphMostly Cloudy
3:18 PM86.0 °F77.0 °F74 %29.73 in10.0 miEast (80°)12.7 mphMostly Cloudy
3:28 PM86.0 °F77.0 °F74 %29.73 in10.0 miENE (70°)12.7 mphMostly Cloudy
3:38 PM86.0 °F78.8 °F79 %29.73 in10.0 miEast (80°)12.7 mphMostly Cloudy
3:43 PM86.0 °F77.0 °F74 %29.73 in10.0 miEast (80°)13.8 mphScattered Clouds
3:48 PM86.0 °F77.0 °F74 %29.73 in10.0 miEast (80°)15.0 mphMostly Cloudy
3:53 PM86.0 °F78.8 °F79 %29.72 in10.0 miEast (90°)12.7 mphMostly Cloudy
3:58 PM86.2 °F78.1 °F77 %29.69 in10.0 miEast (80°)13.8 mphScattered Clouds
4:03 PM86.0 °F77.0 °F74 %29.72 in10.0 miEast (80°)13.8 mphMostly Cloudy
4:13 PM86.0 °F77.0 °F74 %29.72 in10.0 miEast (80°)12.7 mphScattered Clouds
4:33 PM84.2 °F77.0 °F79 %29.72 in10.0 miEast (90°)16.1 mphMostly Cloudy
4:43 PM84.2 °F77.0 °F79 %29.72 in10.0 miEast (80°)13.8 mphMostly Cloudy
4:58 PM84.2 °F77.4 °F80 %29.69 in10.0 miEast (90°)12.7 mphMostly Cloudy
5:08 PM84.2 °F77.0 °F79 %29.73 in10.0 miEast (90°)12.7 mphScattered Clouds
5:23 PM84.2 °F77.0 °F79 %29.73 in10.0 miENE (70°)15.0 mphMostly Cloudy
5:34 PM84.2 °F77.0 °F79 %29.73 in10.0 miEast (90°)12.7 mphRainLight Rain
5:49 PM80.6 °F75.2 °F84 %29.74 in2.5 miEast (100°)12.7 mph24.2 mphRainRain
5:54 PM80.6 °F77.0 °F89 %29.74 in5.0 miEast (90°)12.7 mphRainLight Rain
5:56 PM80.6 °F77.0 °F89 %29.74 in9.0 miEast (90°)12.7 mphMostly Cloudy
5:58 PM82.4 °F77.0 °F84 %29.71 in10.0 miEast (80°)12.7 mph0.02 inMostly Cloudy
6:03 PM82.4 °F77.0 °F84 %29.75 in10.0 miEast (90°)12.7 mphScattered Clouds
6:33 PM82.4 °F77.0 °F84 %29.76 in10.0 miENE (70°)12.7 mphMostly Cloudy
6:38 PM82.4 °F77.0 °F84 %29.76 in10.0 miEast (80°)12.7 mphMostly Cloudy
6:58 PM80.6 °F77.0 °F89 %29.73 in10.0 miEast (90°)15.0 mphScattered Clouds
7:08 PM80.6 °F77.0 °F89 %29.76 in10.0 miEast (100°)13.8 mphScattered Clouds
7:42 PM80.6 °F77.0 °F89 %29.78 in10.0 miEast (90°)11.5 mphLight Drizzle
7:47 PM82.4 °F77.0 °F84 %29.78 in10.0 miEast (80°)13.8 mphLight Drizzle
7:51 PM82.4 °F77.0 °F84 %29.78 in10.0 miEast (80°)16.1 mphMostly Cloudy
7:56 PM80.6 °F77.0 °F89 %29.79 in10.0 miEast (80°)12.7 mphMostly Cloudy
7:58 PM81.5 °F76.3 °F84 %29.76 in10.0 miEast (80°)12.7 mph0.01 inMostly Cloudy
8:03 PM80.6 °F77.0 °F89 %29.79 in10.0 miEast (80°)13.8 mphScattered Clouds
8:58 PM81.1 °F76.8 °F87 %29.77 in10.0 miEast (80°)12.7 mphPartly Cloudy
9:58 PM80.2 °F77.2 °F90 %29.78 in10.0 miENE (70°)9.2 mphClear
10:28 PM80.6 °F77.0 °F89 %29.81 in10.0 miEast (80°)11.5 mphMostly Cloudy
10:43 PM80.6 °F77.0 °F89 %29.81 in10.0 miEast (80°)12.7 mphMostly Cloudy
10:53 PM80.6 °F77.0 °F89 %29.82 in10.0 miEast (100°)12.7 mphMostly Cloudy
10:58 PM81.3 °F77.5 °F88 %29.79 in10.0 miEast (100°)10.4 mphMostly Cloudy
11:08 PM80.6 °F77.0 °F89 %29.82 in10.0 miESE (110°)8.1 mphScattered Clouds
11:46 PM80.6 °F77.0 °F89 %29.82 in10.0 miEast (80°)9.2 mphMostly Cloudy
11:51 PM80.6 °F77.0 °F89 %29.82 in10.0 miEast (80°)12.7 mphMostly Cloudy
11:56 PM80.6 °F77.0 °F89 %29.81 in10.0 miEast (80°)12.7 mphMostly Cloudy
11:58 PM81.1 °F76.8 °F87 %29.78 in10.0 miEast (80°)12.7 mphScattered Clouds
Hourly data recorded from PGUA, located miles away from Umatac, Guam







STORIES FROM OUR PARTNERS